SCP
3 3 2 2 2 2 2 3 3 2 2 3 3 3 3 3 3 3 3 4 4 4 3 3 3 4 5 4 3 3 3 4 4 3 3 2 2 2 2 2 2 2 2
3 3 2 2 2 2 2 2 2 2 2 2 2 3 3 3 3 3 3 4 4 4 3 3 3 4 5 5 5 4 4 4 4 3 3 3 2 2 2 2 2 2 2
2 2 1 1 1 1 1 1 1 1 1 1 1 2 2 2 2 3 3 3 3 3 4 3 4 5 5 6 5 5 5 4 4 4 4 3 3 2 2 2 2 2 2
2 1 1 1 1 1 1 1 1 1 1 1 1 1 1 1 1 2 2 2 2 3 4 4 5 5 6 6 6 6 5 5 5 5 4 4 3 2 2 2 2 2 2
1 1 1 1 1 1 1 1 1 1 1 0 0 0 0 0 1 1 1 1 1 2 3 4 5 5 6 6 6 6 6 6 5 5 5 5 4 3 2 2 2 2 2
1 1 1 0 0 0 0 0 0 0 0 0 0 0 0 0 0 0 0 1 1 1 2 3 4 4 5 5 6 6 6 7 6 6 6 6 5 4 3 2 2 2 2
0 0 0 0 0 0 0 0 0 0 0 0 0 0 0 0 0 0 0 0 1 1 1 2 2 3 4 4 5 6 6 7 7 7 7 6 5 4 3 3 2 2 2
0 0 0 0 0 0 0 0 0 0 0 0 0 0 0 0 0 0 0 0 0 1 1 1 2 2 3 4 4 5 5 6 7 7 7 6 5 4 4 3 3 2 2
1 1 0 0 0 0 0 0 0 0 0 0 0 0 0 0 0 0 0 0 0 0 1 1 1 2 3 4 4 4 5 5 6 7 6 6 5 4 4 4 3 3 3
1 1 1 1 0 0 0 0 0 0 0 0 0 0 0 0 0 0 0 0 0 0 0 1 1 2 2 3 3 4 4 5 6 6 6 6 5 5 4 4 4 3 3
2 1 1 1 1 1 0 0 0 0 0 0 0 0 0 0 0 0 0 0 0 0 0 1 1 1 2 2 3 3 3 4 4 4 5 5 5 5 4 4 4 3 3
1 1 1 1 1 1 1 1 1 0 0 0 0 0 0 0 0 0 0 0 0 0 0 0 1 1 1 1 2 2 3 3 3 3 3 3 4 4 4 3 3 3 3
1 1 1 1 1 1 1 1 1 1 1 0 0 0 0 0 0 0 0 0 0 0 0 0 1 0 1 1 1 1 2 2 2 2 2 2 2 3 3 4 4 3 2
1 1 1 1 1 1 1 1 1 1 1 1 1 0 0 0 0 0 0 0 0 0 0 0 0 0 0 1 1 1 1 1 1 1 1 1 1 2 2 4 5 3 2
0 0 1 1 1 1 1 1 1 1 1 1 1 1 0 0 0 0 0 0 0 0 0 0 0 0 0 1 1 1 1 1 1 1 1 1 1 1 1 2 3 2 1
0 0 0 0 1 1 1 1 1 1 1 1 1 1 0 0 0 0 0 0 0 0 0 0 0 0 0 0 1 1 1 1 1 0 0 0 0 0 0 0 0 0 0
0 0 0 0 0 0 1 0 0 0 0 1 1 1 0 0 0 0 0 0 0 0 0 0 0 0 0 0 0 0 0 0 0 0 0 0 0 0 0 0 0 0 0
0 0 0 0 0 0 0 0 0 0 0 0 0 0 0 0 0 0 0 0 0 0 0 0 0 0 0 0 0 0 0 0 0 0 0 0 0 0 0 0 0 0 0
0 0 0 0 0 0 0 0 0 0 0 0 0 0 0 0 0 0 0 0 0 0 0 0 0 0 0 0 0 0 0 0 0 0 0 0 0 0 0 0 0 0 0
0 0 0 0 0 0 0 0 0 0 0 0 0 0 0 0 0 0 0 0 0 0 0 0 0 0 0 0 0 0 0 0 0 0 0 0 0 0 0 0 0 0 0
0 0 0 0 0 0 0 0 0 0 0 0 0 0 0 0 0 0 0 0 0 0 0 0 0 0 0 0 0 0 0 0 0 0 0 0 0 0 0 0 0 0 0
0 0 0 0 0 0 0 0 0 0 0 0 0 0 0 0 0 0 0 0 0 0 0 0 0 0 0 0 0 0 0 0 0 0 0 0 0 0 0 0 0 0 0
0 0 0 0 0 0 0 0 0 0 0 0 0 0 0 0 0 0 0 0 0 0 0 0 0 0 0 0 0 0 0 0 0 0 0 0 0 0 0 0 0 0 0
0 0 0 0 0 0 0 0 0 0 0 0 0 0 0 0 0 0 0 0 0 0 0 0 0 0 0 0 0 0 0 0 0 0 0 0 0 0 0 0 0 0 0
0 0 0 0 0 0 0 0 0 0 0 0 0 0 0 0 0 0 0 0 0 0 0 0 0 0 0 0 0 0 0 0 0 0 0 0 0 0 0 0 0 0 0
0 0 0 0 0 0 0 0 0 0 0 0 0 0 0 0 0 0 0 0 0 0 0 0 0 0 0 0 0 0 0 0 0 0 0 0 0 0 0 0 0 0 0
Wind_Speed
5 4 3 2 2 2 3 3 4 5 6 6 7 8 8 9 8 7 5 13 14 15 14 14 20 22 22 21 20 20 20 20 19 18 19 19 19 19 19 19 18 17 17
4 3 2 2 2 2 3 3 4 4 4 4 5 6 6 6 6 7 7 9 15 15 15 16 19 22 23 22 21 20 20 20 19 18 19 19 19 19 19 20 19 18 18
4 4 2 1 1 1 1 1 2 2 2 3 4 5 4 5 5 7 7 6 7 12 15 17 19 21 23 23 22 21 20 20 19 19 19 19 19 19 19 19 19 19 19
4 3 3 2 1 1 0 0 0 0 1 1 2 3 4 4 6 6 6 6 6 7 11 18 19 21 23 23 23 22 20 20 19 19 19 20 20 20 19 19 20 19 19
5 4 2 2 2 2 1 0 1 1 1 2 3 4 3 4 5 6 6 7 7 7 7 11 18 21 23 24 24 23 21 20 20 20 20 20 20 20 20 20 20 19 19
5 4 3 3 2 2 1 0 0 1 1 2 3 3 4 5 4 5 6 6 6 7 7 8 8 12 21 22 22 22 22 21 20 21 21 21 20 20 20 20 20 20 20
5 4 3 3 3 2 1 1 1 1 1 1 1 3 4 4 4 3 3 3 4 5 5 6 6 6 7 16 20 21 22 22 21 21 21 21 21 20 19 20 20 20 20
5 5 5 4 3 2 1 0 1 1 1 0 1 1 4 5 4 2 2 2 3 3 4 6 5 7 6 5 9 18 21 23 23 22 21 21 20 19 19 20 20 20 20
5 5 5 4 4 4 3 3 2 3 2 1 1 2 0 2 4 4 2 2 2 3 4 4 4 5 7 6 6 12 18 20 21 22 21 20 20 19 19 20 20 20 20
4 5 6 5 5 4 4 4 3 3 3 2 1 2 3 3 2 4 3 2 3 3 4 4 4 4 4 4 7 10 14 15 16 19 20 20 19 18 18 19 21 21 20
3 4 5 5 5 4 5 5 4 4 3 3 3 2 2 2 4 3 5 4 3 2 3 4 3 3 3 3 4 7 11 12 14 14 15 16 16 16 17 18 20 21 21
2 3 4 4 5 5 6 6 5 5 4 4 3 3 3 3 3 3 5 5 5 3 4 3 3 3 3 2 3 6 9 10 11 11 10 11 12 13 13 14 16 17 19
3 4 3 3 3 4 6 6 6 6 5 5 5 4 4 5 4 4 5 5 4 3 3 2 2 2 2 1 1 3 6 7 8 8 7 7 7 8 8 9 11 14 15
4 4 5 4 4 3 4 4 4 6 5 6 6 6 4 5 4 4 4 4 5 3 2 3 2 1 0 1 1 2 2 5 6 6 5 5 5 5 4 4 5 7 8
4 5 6 5 5 5 4 3 4 5 5 6 6 6 5 4 4 4 4 4 4 5 4 2 1 0 1 1 2 3 4 6 8 8 8 7 6 6 5 4 2 1 2
4 5 5 6 6 6 5 4 4 5 5 6 5 6 6 4 4 4 4 4 5 5 4 2 2 1 1 3 5 5 6 10 10 10 11 10 10 10 10 9 7 5 3
5 5 5 5 6 6 6 5 5 6 6 6 6 6 7 5 4 4 3 3 4 5 5 3 1 1 3 5 5 5 6 6 7 12 13 13 13 13 13 12 12 11 9
6 6 6 6 6 6 6 6 7 7 6 6 6 6 7 5 5 4 3 4 4 4 4 4 2 2 3 6 7 7 6 6 7 13 15 15 15 14 14 14 14 13 13
7 7 6 6 7 7 6 6 6 7 7 7 6 7 7 6 6 4 4 4 3 3 3 4 3 2 3 6 8 7 8 6 7 10 14 15 15 15 14 14 14 14 14
8 8 8 7 7 7 7 7 6 6 7 6 6 7 8 7 7 5 4 4 3 3 3 4 4 5 5 6 7 7 7 5 6 7 9 10 14 15 14 14 14 14 14
10 9 8 7 7 6 7 6 5 6 6 6 6 7 7 8 9 6 4 4 4 4 4 4 5 6 6 7 7 5 8 7 6 4 6 5 6 6 7 10 12 13 13
9 8 8 7 7 7 8 10 7 5 6 7 6 6 7 7 8 8 7 6 6 6 6 5 5 7 8 8 7 8 9 8 5 1 4 5 4 6 4 4 8 11 12
8 8 8 7 8 8 11 11 11 6 6 7 7 7 7 6 7 5 5 5 4 5 6 6 8 8 9 10 10 9 7 5 6 5 5 5 3 5 4 5 9 10 11
7 7 7 8 7 9 11 12 11 6 5 6 7 8 8 8 7 7 6 4 3 3 4 5 7 8 10 9 8 9 9 9 7 4 3 5 2 3 4 4 7 9 10
7 7 6 8 8 8 11 12 10 4 4 6 7 7 9 9 11 12 8 7 5 4 6 10 10 11 13 13 11 9 10 10 8 3 2 4 3 3 3 2 4 7 9
7 7 7 7 8 8 11 12 10 4 4 4 4 6 10 11 14 14 9 9 8 6 8 10 11 11 10 11 11 9 10 10 8 4 2 4 3 4 3 2 2 2 4
Wind_Direction
211 208 213 218 219 212 215 226 230 232 234 235 234 235 234 231 230 228 236 244 250 251 253 251 240 231 224 218 215 215 216 217 216 214 213 212 212 209 207 206 206 205 204
191 189 203 211 221 211 207 214 222 224 232 235 241 241 241 237 229 225 227 238 243 243 244 242 239 238 230 223 219 218 217 218 217 216 216 215 214 212 211 210 208 207 206
177 176 175 184 214 207 205 222 240 230 241 242 249 252 247 240 236 232 231 227 233 236 235 236 236 236 234 229 225 221 219 217 218 218 218 217 215 214 213 212 211 209 208
161 159 158 176 194 133 90 177 254 303 291 281 272 266 257 248 245 242 238 230 224 232 232 234 234 233 236 236 232 227 222 219 218 218 218 218 217 216 215 214 214 212 210
155 144 152 163 135 98 79 95 104 159 278 297 282 269 265 257 251 254 246 240 232 229 228 235 236 235 237 239 237 232 226 223 221 220 220 220 219 218 217 216 216 214 212
155 140 145 144 125 105 86 66 237 236 232 262 290 295 275 264 255 249 251 252 245 240 235 237 236 238 238 239 239 235 231 228 224 222 221 221 221 220 219 217 217 216 214
159 153 149 147 137 137 159 229 214 283 288 307 347 319 303 286 274 263 261 268 268 262 249 240 233 233 238 238 238 236 234 233 230 226 224 223 222 220 219 219 218 217 216
167 169 165 167 165 155 149 178 170 195 280 6 111 339 334 334 334 309 301 286 295 303 287 271 247 236 236 234 235 235 235 233 231 230 227 225 223 220 218 219 219 218 217
180 174 180 177 181 172 180 200 194 179 214 271 185 170 201 286 307 304 292 295 319 314 300 290 276 256 239 228 228 231 232 232 231 232 231 230 226 222 219 218 218 219 218
197 193 192 193 192 187 189 203 189 185 181 226 265 214 199 198 253 305 304 291 301 307 304 305 299 288 263 233 225 225 228 228 231 233 232 230 226 224 224 221 220 219 219
239 226 213 203 201 199 198 200 197 206 199 202 211 224 233 223 213 238 287 303 311 283 285 287 286 281 272 246 228 222 219 219 223 229 233 236 232 226 225 226 226 225 221
281 270 237 221 212 206 205 204 204 211 216 219 220 216 215 223 219 223 262 289 296 288 287 277 273 261 260 245 234 216 205 209 215 218 224 232 231 226 225 228 232 233 229
312 304 297 255 229 218 214 207 204 213 215 219 224 228 227 227 224 227 252 274 281 284 282 286 276 265 267 271 246 211 196 196 206 205 198 198 205 211 214 221 232 235 236
310 320 318 305 283 256 238 219 216 220 217 220 230 231 234 236 227 226 232 255 284 278 260 265 294 285 319 355 54 65 91 140 156 158 156 154 162 171 180 200 228 235 238
316 335 329 319 308 295 279 254 237 234 225 224 230 234 236 237 231 233 229 221 243 274 276 242 248 348 85 70 69 78 91 108 114 114 113 114 114 113 112 114 140 182 231
306 313 315 315 311 303 294 281 265 251 237 235 231 231 237 238 236 233 231 226 222 236 254 225 220 202 141 115 96 89 90 94 91 96 97 96 94 92 87 84 79 78 81
284 289 292 299 301 298 293 285 271 262 249 247 240 231 233 232 232 234 234 234 230 223 243 242 206 159 133 125 109 93 85 81 85 89 92 90 87 84 82 80 76 71 68
265 267 274 280 284 289 291 286 281 272 253 248 244 236 236 233 232 232 233 236 232 218 219 223 196 158 136 134 120 106 94 90 88 91 92 90 87 84 80 78 76 73 70
255 259 260 263 268 271 275 274 272 270 255 244 239 235 232 224 229 229 230 233 230 225 207 190 181 153 131 133 120 106 101 94 90 91 87 85 85 82 79 77 76 74 72
246 251 250 249 254 259 265 268 271 273 261 247 242 236 224 216 218 221 226 224 216 208 191 178 167 149 134 129 125 123 112 95 92 88 83 82 82 79 77 78 78 76 73
243 241 243 247 248 252 255 257 261 272 264 252 247 235 221 213 210 209 208 206 201 200 183 173 160 145 141 143 135 128 120 109 87 86 93 78 74 70 63 66 74 78 78
241 239 236 237 241 250 261 267 265 267 263 248 243 233 220 210 205 204 202 198 197 192 180 172 161 153 146 141 133 135 133 131 115 103 99 84 71 74 60 59 68 76 80
233 235 236 234 235 243 253 261 266 261 258 246 238 223 213 203 189 182 178 175 183 177 173 168 159 152 148 149 143 140 139 124 120 143 115 89 64 70 56 59 67 75 81
227 228 232 232 233 242 247 254 261 257 256 250 238 223 208 192 186 173 161 150 138 135 146 147 145 141 140 142 141 138 130 111 99 102 98 101 79 69 57 42 54 71 78
230 228 227 228 229 240 245 251 254 245 249 259 249 227 206 192 184 168 156 147 132 114 104 115 119 123 129 134 136 130 130 131 127 125 99 106 115 90 59 38 40 62 75
232 233 234 228 225 230 237 241 240 223 241 257 254 227 207 192 174 166 160 153 145 137 126 115 109 111 119 129 137 140 143 141 136 136 158 115 137 123 91 30 31 42 61